Flag Weather past 2 weeks in Birmingham, Alabama, U.S.A.

Now
51 °F

Sunny.


Feels Like: 51 °F
Forecast: 29 / 51 °F
Wind: 3 mph from West

Location: Birmingham International Airport

Current Time: Nov 28, 2014 at 2:41:26 PM

Latest Report: Nov 28, 2014 at 1:53 PM


Visibility: 10 mi

Pressure: 30.33 "Hg

Humidity: 23%

Dew point: 14 °F

Location of BirminghamLocation

Historic Weather in Birmingham — Graph

°F

Birmingham temperature yesterday

Maximum temperature yesterday: 45 °F (at 11:53 AM)
Minimum temperature yesterday: 33 °F (at 9:53 PM)
Average temperature yesterday: 40 °F

Past Weeks' High & Low Weather Summary

 TemperatureHumidityPressure
High77 °F (Nov 21, 11:53 AM)96% (Nov 16, 11:53 PM)30.49 "Hg (Nov 16, 11:53 PM)
Low21 °F (Nov 19, 2:53 AM)22% (Nov 21, 11:53 AM)29.54 "Hg (Nov 23, 2:53 PM)
Average46 °F61%30.19 "Hg
* Reported Nov 13 12:53 PM — Nov 28 12:53 PM, Birmingham, Weather by CustomWeather, © 2014

Note: Actual official high and low records may vary slightly from our data, if they occured in-between our weather recording intervals... More about our weather records

Advertising

Birmingham weather history for previous 24 hours

 ConditionsComfort  
Time TempWeatherWind HumidityBarometerVisibility
12:53 PM
Nov 28
49 °FSunny.5 mph23%30.37 "Hg10 mi
11:53 AM47 °FSunny.3 mph26%30.40 "Hg10 mi
10:53 AM44 °FSunny.6 mph28%30.43 "Hg10 mi
9:53 AM41 °FSunny.5 mph38%30.47 "Hg10 mi
8:53 AM36 °FSunny.No wind62%30.49 "Hg10 mi
7:53 AM31 °FSunny.No wind82%30.49 "Hg9 mi
6:53 AM27 °FSunny.3 mph85%30.48 "Hg8 mi
5:53 AM28 °FClear.No wind85%30.46 "Hg10 mi
4:53 AM28 °FClear.5 mph85%30.45 "Hg10 mi
3:53 AM29 °FClear.3 mph82%30.45 "Hg10 mi
2:53 AM28 °FClear.3 mph85%30.45 "Hg10 mi
1:53 AM30 °FClear.No wind82%30.45 "Hg10 mi
12:53 AM31 °FClear.No wind79%30.45 "Hg10 mi
11:53 PM
Nov 27
33 °FClear.No wind75%30.45 "Hg10 mi
10:53 PM34 °FClear.8 mph76%30.47 "Hg10 mi
9:53 PM33 °FClear.5 mph78%30.47 "Hg10 mi
8:53 PM35 °FClear.7 mph75%30.46 "Hg10 mi
7:53 PM37 °FClear.5 mph70%30.45 "Hg10 mi
6:53 PM38 °FClear.7 mph68%30.45 "Hg10 mi
5:53 PM40 °FPassing clouds.6 mph63%30.44 "Hg10 mi
4:53 PM43 °FOvercast.10 mph56%30.43 "Hg10 mi
3:53 PM44 °FOvercast.10 mph51%30.42 "Hg10 mi
2:53 PM45 °FPartly sunny.9 mph51%30.40 "Hg10 mi
Weather by CustomWeather, © 2014

See weather overviewHow to use our weather pages